EW9766 Weather Reports


Display with metric or nautical units.
time (UTC)temp
F
wind
direction
speed
MPH
gust
MPH
rain 1hr
in
rain 24hr
in
rain mn
in
humidity
%
barometer
mb
20260904170035 50 337 1.0 3.0 0.01 0.02 0.02 95 1015.3
20260904164534 51 323 2.0 4.0 0.01 0.02 0.02 95 1015.2
20260904161531 51 322 1.0 5.0 0.01 0.02 0.01 96 1015.1
20260904160105 49 330 2.0 4.0 0.00 0.01 0.01 96 1015.0
20260904154608 49 337 2.0 3.0 0.00 0.01 0.01 96 1014.9
20260904153034 49 227 0.0 3.0 0.00 0.01 0.01 96 1014.7
20260904151539 48 195 1.0 3.0 0.00 0.01 0.01 96 1014.6
20260904150106 47 153 2.0 5.0 0.00 0.01 0.01 96 1014.4
20260904144539 46 135 2.0 4.0 0.00 0.01 0.01 96 1014.4
20260904143034 46 147 2.0 4.0 0.00 0.01 0.01 96 1014.3
20260904141531 46 168 2.0 4.0 0.00 0.01 0.01 96 1014.1
20260904140032 45 164 2.0 4.0 0.00 0.01 0.01 96 1013.9
20260904134535 45 157 3.0 5.0 0.00 0.01 0.01 96 1013.8
20260904133036 45 136 3.0 5.0 0.00 0.01 0.01 96 1013.7
20260904131530 45 136 3.0 4.0 0.00 0.01 0.01 96 1013.6
20260904130030 46 165 2.0 4.0 0.00 0.01 0.01 96 1013.4
20260904124606 46 180 2.0 3.0 0.01 0.01 0.01 96 1013.5
20260904123034 46 177 2.0 5.0 0.01 0.01 0.01 96 1013.4
20260904121531 46 145 3.0 4.0 0.01 0.01 0.01 96 1013.3
20260904113031 46 180 1.0 3.0 0.00 0.00 0.00 95 1013.1
20260904111535 46 180 0.0 3.0 0.00 0.00 0.00 95 1013.0
20260904110034 46 180 1.0 3.0 0.00 0.00 0.00 95 1012.8
20260904104531 46 157 1.0 4.0 0.00 0.00 0.00 95 1012.7
20260904103036 46 173 2.0 3.0 0.00 0.00 0.00 95 1012.6
20260904101608 46 157 2.0 4.0 0.00 0.00 0.00 95 1012.5
20260904100035 46 179 1.0 3.0 0.00 0.00 0.00 95 1012.4
20260904094532 46 181 2.0 4.0 0.00 0.00 0.00 95 1012.3
20260904093038 46 166 3.0 5.0 0.00 0.00 0.00 95 1012.3
20260904091530 46 141 4.0 5.0 0.00 0.00 0.00 95 1012.3
20260904090107 46 159 2.0 5.0 0.00 0.00 0.00 95 1012.3
20260904084609 45 178 4.0 8.0 0.00 0.00 0.00 95 1012.3
20260904083035 45 192 3.0 5.0 0.00 0.00 0.00 95 1012.1
20260904081530 45 176 3.0 7.0 0.00 0.00 0.00 95 1012.2
20260904080105 45 180 1.0 4.0 0.00 0.00 0.00 95 1012.2
20260904074531 46 180 2.0 3.0 0.00 0.00 0.00 95 1012.3
20260904073036 46 130 1.0 4.0 0.00 0.00 0.00 94 1012.2
20260904071535 46 192 1.0 4.0 0.00 0.00 0.00 94 1012.2
20260904070109 46 162 1.0 4.0 0.00 0.00 0.00 94 1012.1
20260904064535 46 157 0.0 2.0 0.00 0.00 0.00 94 1012.1
20260904063107 46 183 3.0 5.0 0.00 0.00 0.00 94 1012.1
20260904061535 46 201 3.0 6.0 0.00 0.00 0.00 94 1012.1
20260904054651 47 143 3.0 5.0 0.00 0.00 0.00 94 1012.0
20260904053032 47 186 2.0 4.0 0.00 0.00 0.00 94 1012.1
20260904043105 49 90 1.0 3.0 0.00 0.00 0.00 93 1012.4
20260904041533 49 169 1.0 4.0 0.00 0.00 0.00 92 1012.4
20260904040034 49 213 2.0 4.0 0.00 0.00 0.00 92 1012.3
20260904034536 49 178 2.0 6.0 0.00 0.00 0.00 91 1012.0
20260904033033 49 157 1.0 3.0 0.00 0.00 0.00 91 1012.0
20260904031535 49 157 2.0 3.0 0.00 0.01 0.00 90 1012.0
20260904030107 49 158 2.0 4.0 0.00 0.02 0.00 89 1011.9
20260904013148 53 270 1.0 3.0 0.00 0.14 0.00 87 1011.7
20260904011606 53 268 1.0 4.0 0.00 0.14 0.00 86 1011.7
20260904010035 53 266 2.0 6.0 0.00 0.16 0.00 85 1011.5
20260904004533 53 243 2.0 5.0 0.00 0.18 0.00 84 1011.4
20260904003030 53 251 2.0 5.0 0.00 0.19 0.00 82 1011.4
20260904001607 54 296 2.0 5.0 0.00 0.19 0.00 80 1011.3
20260904000032 55 329 4.0 8.0 0.00 0.23 0.00 79 1011.4
20260903233031 56 357 4.0 7.0 0.00 0.24 0.00 78 1011.5
20260903231533 56 331 4.0 7.0 0.00 0.24 0.00 78 1011.6
20260903230032 57 337 4.0 10.0 0.00 0.25 0.00 75 1011.5
20260903223106 60 307 4.0 9.0 0.00 0.26 0.00 74 1011.5
20260903221530 60 277 2.0 7.0 0.00 0.27 0.00 78 1011.6
20260903220032 59 259 1.0 4.0 0.00 0.27 0.00 77 1011.7
20260903214532 59 304 2.0 6.0 0.00 0.28 0.00 77 1011.7
20260903213035 59 286 2.0 5.0 0.00 0.28 0.00 78 1011.7
20260903211536 59 283 3.0 7.0 0.00 0.28 0.00 78 1011.7
20260903210033 60 289 3.0 9.0 0.00 0.28 0.00 77 1011.7
20260903204533 60 308 5.0 11.0 0.00 0.30 0.00 79 1011.7
20260903203030 57 311 5.0 11.0 0.00 0.31 0.00 81 1011.8
20260903201535 57 300 3.0 8.0 0.00 0.32 0.00 80 1011.9
20260903200030 57 290 4.0 10.0 0.00 0.33 0.00 79 1011.9
20260903194643 59 329 5.0 10.0 0.00 0.33 0.00 78 1012.0
20260903193030 60 312 3.0 9.0 0.00 0.33 0.00 80 1012.2
20260903191531 59 353 5.0 9.0 0.00 0.33 0.00 81 1012.3
20260903190031 57 339 4.0 8.0 0.00 0.33 0.00 81 1012.5
20260903184531 55 15 4.0 7.0 0.00 0.33 0.00 81 1012.6
20260903183029 55 12 3.0 5.0 0.00 0.33 0.00 82 1012.6
20260903181535 55 319 2.0 6.0 0.00 0.33 0.00 84 1012.5
20260903180031 55 331 2.0 7.0 0.00 0.33 0.00 85 1012.6
20260903173035 53 346 4.0 7.0 0.00 0.33 0.00 88 1012.5